Wetbulb
44.32 44.05 44.27 44.05 43.68 43.68 43.93 44.09 44.35 44.37 44.51 44.53 45.07 45.00 44.94 45.20 48.72 47.20 44.43 49.87 46.03 44.39 45.51 49.57 48.72 43.70 45.63 44.95 39.96 44.14 43.89 43.92 40.98 35.32 36.40 36.30 31.65 35.21 34.62 38.34 34.88 32.83 29.68 25.87 28.34 24.49 25.86 43.34 41.82 35.60 37.81 41.56 42.65 42.52
44.44 44.20 43.95 43.54 43.51 43.63 43.76 43.84 44.11 44.33 44.57 44.86 44.88 45.65 46.16 48.16 48.63 48.06 43.17 48.84 50.21 43.88 45.27 49.64 49.69 50.42 48.93 48.77 47.00 45.11 44.92 45.01 45.36 40.41 41.15 38.57 35.02 33.38 33.59 30.97 41.13 33.09 35.60 32.59 34.24 32.74 41.11 43.08 42.38 43.49 44.00 42.75 42.70 42.83
44.23 43.60 43.74 43.51 43.65 43.70 43.68 43.78 43.71 43.99 43.63 44.74 45.77 46.55 47.47 48.08 48.40 47.51 44.73 47.19 46.44 43.30 43.78 46.92 46.16 51.72 54.80 53.12 53.08 45.18 45.27 49.45 47.30 47.64 44.29 41.50 35.46 36.36 30.96 30.99 35.74 40.08 43.71 38.03 37.18 40.64 41.91 43.44 44.67 44.90 43.99 40.58 40.54 41.46
44.11 43.79 43.80 43.82 43.78 43.80 43.85 43.77 43.25 44.84 45.73 46.09 46.67 47.14 47.53 48.08 48.80 47.87 44.14 48.09 46.57 45.77 38.47 41.08 54.55 51.66 54.61 54.93 52.91 51.91 50.30 51.08 50.40 46.32 39.33 37.16 35.17 41.58 32.35 37.87 36.35 40.17 41.63 38.39 38.54 41.04 41.88 42.33 42.80 41.17 40.00 39.97 38.74 38.87
43.80 43.54 43.66 43.80 43.74 43.90 43.86 44.41 45.29 45.54 45.99 46.48 46.83 47.15 47.99 48.15 48.16 46.44 48.31 47.46 49.32 46.54 38.95 43.01 50.59 52.24 53.77 53.89 52.27 51.89 51.82 50.42 45.14 39.21 34.01 36.59 39.32 38.37 36.81 35.92 32.49 41.11 39.74 34.58 33.56 42.38 39.97 39.45 40.08 41.10 39.07 38.35 38.06 36.76
43.68 43.75 43.84 43.91 44.13 43.87 44.55 45.05 45.82 46.06 46.41 46.48 47.31 47.48 47.74 47.76 47.59 44.78 41.18 45.65 49.21 50.04 43.73 37.37 48.46 49.48 51.34 53.89 53.04 51.56 52.14 49.66 48.14 43.24 35.37 41.68 45.34 38.18 32.56 28.36 40.76 42.65 43.68 43.28 41.27 41.66 40.02 39.22 39.23 39.67 37.63 36.99 36.64 35.44
44.07 44.31 44.46 44.62 44.74 44.82 45.10 45.71 45.93 46.10 46.50 46.75 47.03 47.26 47.51 47.37 46.69 42.45 39.97 45.67 48.02 49.35 42.97 37.08 39.07 47.25 50.57 50.84 48.51 49.72 49.60 47.25 47.77 43.13 40.05 40.63 41.83 39.53 31.89 31.73 40.74 41.58 41.47 40.79 40.87 40.02 37.21 37.85 35.37 37.46 36.52 36.05 36.34 35.27
44.68 44.80 45.05 45.07 45.14 45.31 45.33 45.37 45.70 45.84 46.12 46.85 47.05 47.05 47.39 47.41 47.66 44.09 49.09 49.07 48.88 45.46 45.40 35.74 37.98 40.75 47.59 41.81 42.19 46.62 44.37 44.48 43.74 42.06 39.02 35.90 38.92 33.20 31.43 39.12 40.06 40.38 41.19 40.50 39.27 40.31 38.17 37.19 36.41 35.70 36.16 35.70 34.35 33.47
44.78 44.84 44.86 45.18 45.27 45.37 45.27 45.29 45.05 45.35 45.84 46.69 47.00 47.35 47.28 45.61 43.86 46.01 48.69 48.87 50.41 47.05 38.29 34.11 35.18 34.65 43.59 41.17 39.43 38.10 40.28 36.07 40.89 35.71 35.58 38.29 34.90 33.02 36.72 38.64 38.86 39.93 38.72 36.59 37.30 37.20 36.39 35.01 35.06 35.46 35.31 34.16 32.31 31.14
44.12 44.05 44.04 44.47 44.56 44.63 44.57 44.60 44.78 45.04 46.32 46.78 45.91 44.50 39.72 45.46 49.16 49.67 47.77 44.77 44.91 43.10 40.14 34.65 39.74 36.10 41.51 34.59 35.57 33.22 34.29 33.91 29.72 36.01 39.56 32.96 32.58 36.69 38.14 39.01 39.53 39.17 38.24 37.49 34.09 33.25 34.65 34.84 35.19 34.69 34.22 33.30 32.25 30.48
44.69 44.39 44.12 44.29 44.50 44.36 44.46 44.64 45.40 46.92 46.67 44.99 42.29 39.74 45.82 49.02 48.18 43.77 38.42 35.48 36.98 32.01 35.81 38.21 36.70 37.82 41.42 34.28 34.11 33.88 33.20 33.26 30.31 34.32 32.60 32.46 31.69 35.71 39.50 39.64 40.19 40.21 39.83 37.99 37.71 37.10 37.69 37.15 35.44 33.38 32.86 32.01 30.64 29.52
45.46 45.47 45.79 45.61 45.16 44.87 44.61 46.01 46.80 46.67 45.55 48.04 47.18 48.49 47.28 44.65 38.49 34.72 32.73 32.52 33.06 31.52 34.86 35.71 36.61 39.72 37.22 42.23 35.85 35.34 32.91 29.27 28.08 36.43 32.88 30.08 33.80 38.62 39.44 39.44 40.26 39.78 38.88 38.50 38.81 37.56 36.37 35.63 34.87 32.75 30.66 29.15 28.44 28.73
46.09 45.98 46.11 46.01 46.24 46.53 46.60 46.89 47.08 49.21 48.31 47.67 42.73 37.64 39.94 33.49 29.76 25.35 27.61 30.17 30.13 33.00 35.13 34.59 33.88 35.33 36.91 37.92 33.73 32.04 28.53 26.15 31.31 24.48 30.65 31.84 35.98 38.22 39.07 38.53 38.15 38.34 37.41 36.42 36.51 35.72 34.72 33.65 32.64 30.19 27.26 26.94 27.04 25.56
44.71 45.25 45.84 46.35 46.38 46.64 46.80 47.21 47.48 47.52 45.63 38.10 35.63 30.65 31.69 30.35 29.61 29.87 31.07 32.25 32.76 33.00 34.63 34.45 33.73 34.08 33.38 34.06 32.25 30.09 31.89 31.24 27.43 23.32 25.76 32.40 35.26 37.09 38.04 37.22 34.27 33.19 32.43 32.64 32.27 31.78 30.50 29.77 29.07 28.66 26.47 25.04 24.41 23.32
43.72 44.13 44.45 44.63 46.11 46.62 46.74 46.33 45.55 44.02 38.28 33.33 33.26 27.48 28.18 30.97 32.05 32.08 32.28 32.79 33.49 34.97 31.69 32.06 34.00 35.16 32.64 32.17 31.98 31.74 30.15 27.07 26.28 26.79 31.13 33.79 35.49 36.02 34.88 33.15 32.16 31.05 31.05 30.86 30.76 29.02 27.62 27.30 26.43 25.92 25.99 25.35 24.33 21.49
44.14 43.24 42.12 44.27 44.74 45.21 44.84 44.00 42.04 39.98 34.55 32.85 31.27 31.18 32.23 32.05 31.49 31.86 32.11 32.31 34.89 33.37 33.91 34.64 32.01 29.98 30.05 30.60 30.64 28.69 26.75 26.09 28.76 30.80 32.97 34.63 33.53 33.08 33.00 32.58 32.56 32.31 31.17 30.08 29.13 28.30 27.33 26.08 25.13 25.13 24.77 22.75 19.90 19.18
42.60 39.25 42.73 44.31 44.25 43.84 43.77 40.61 36.85 33.08 32.46 31.12 29.26 31.66 31.69 31.27 30.26 31.31 31.95 32.61 34.75 33.35 32.11 29.37 29.66 29.14 31.41 29.48 27.97 29.85 26.59 29.32 31.34 32.26 34.37 34.15 31.98 32.04 32.14 31.79 31.62 32.11 31.06 30.51 29.43 28.37 27.17 26.44 25.71 24.30 22.13 22.45 23.18 20.83
38.42 40.90 43.51 44.51 43.57 42.20 40.83 39.11 33.07 30.65 29.61 30.71 28.46 29.84 31.65 31.68 31.33 32.02 32.58 33.46 32.64 30.99 31.82 32.07 33.30 26.70 24.72 25.79 26.52 29.29 30.18 31.48 32.51 33.00 32.49 33.17 33.36 33.62 33.56 32.99 33.09 32.14 30.59 29.07 28.53 27.74 26.14 25.09 23.31 22.38 24.02 22.95 21.68 21.83
40.30 41.53 42.96 43.59 42.43 38.17 34.07 35.14 35.42 29.09 29.82 31.15 31.52 31.51 31.52 31.33 31.75 31.78 32.10 32.78 33.05 32.85 31.38 28.65 23.40 22.73 23.40 26.90 27.19 30.21 30.59 30.79 30.49 31.41 31.93 33.02 33.11 32.52 32.12 31.47 30.72 30.01 29.26 27.63 26.04 24.05 23.37 22.71 21.63 21.51 21.19 19.96 17.24 17.40
40.94 41.34 41.97 42.21 42.15 34.83 32.16 32.88 36.26 31.62 29.24 30.57 32.04 31.33 31.31 30.94 30.89 29.77 29.39 30.05 30.21 28.77 25.16 23.22 22.42 23.37 23.92 25.51 27.98 31.16 31.49 32.20 31.91 29.98 29.72 31.03 31.89 31.76 30.32 28.76 27.13 27.24 25.25 24.06 22.63 22.00 21.29 20.64 20.92 20.16 18.88 16.78 11.65 10.72
36.72 37.86 39.02 38.16 35.90 35.56 33.02 32.23 31.86 32.07 31.68 30.88 31.71 31.86 30.36 28.70 25.81 25.46 25.62 28.55 24.87 24.41 22.63 25.34 24.35 25.45 27.35 27.51 28.54 29.59 29.62 32.49 31.80 31.35 29.80 27.68 28.65 27.81 27.69 27.76 27.07 25.47 22.72 20.55 18.86 18.50 18.57 17.95 18.36 17.19 13.67 7.91 8.49 5.32
34.68 38.59 29.60 33.33 30.12 30.19 30.96 32.81 32.17 32.44 31.56 30.97 30.91 31.49 29.25 27.91 25.89 24.88 26.26 22.36 21.62 23.27 26.19 24.83 24.36 24.01 23.25 23.96 24.92 26.81 27.49 26.89 27.38 26.48 25.78 26.42 24.18 22.42 21.59 22.25 21.28 19.70 20.02 19.43 18.61 16.88 16.60 16.29 16.24 14.45 12.26 10.56 11.44 9.47
36.27 33.11 27.18 26.12 23.27 24.25 24.40 31.10 27.99 30.31 26.54 27.60 28.76 26.53 26.44 26.65 28.65 28.39 21.25 22.25 21.63 23.73 25.37 23.80 23.14 23.36 22.31 22.77 23.92 24.24 25.55 24.66 22.53 21.88 21.20 20.20 20.02 19.80 19.58 19.60 20.02 18.12 17.20 18.06 18.95 17.24 15.80 15.43 14.18 11.81 9.98 7.81 5.68 -0.26
34.06 27.54 25.26 22.15 21.79 17.31 19.28 21.56 27.13 26.65 25.55 24.37 23.40 20.94 23.37 25.73 25.72 20.58 16.60 17.12 19.27 20.98 21.88 21.78 22.76 20.26 19.69 19.16 17.76 18.91 21.07 21.60 20.25 20.65 21.19 18.67 16.22 16.23 17.01 16.27 16.14 16.61 16.71 15.87 14.87 13.47 12.35 9.91 9.03 8.22 3.40 -1.45 -5.40 -6.49
20.50 19.85 19.39 17.81 21.71 18.77 16.27 16.85 16.44 19.23 19.01 20.33 19.08 18.28 22.55 24.05 17.30 15.44 14.15 15.30 15.46 15.24 17.27 19.33 17.73 18.16 15.51 15.19 16.02 16.86 19.22 18.54 16.19 14.38 16.18 18.92 16.88 15.89 14.59 13.76 12.77 13.13 13.80 9.92 7.46 5.50 4.84 3.52 1.77 0.90 1.00 -8.66 -1.10 -3.59
19.42 19.25 19.04 21.22 20.89 19.24 17.60 15.85 14.41 17.40 13.68 17.32 21.12 22.32 20.42 14.47 9.98 9.93 14.16 13.64 13.43 15.06 14.57 16.17 15.19 14.08 13.75 14.99 13.60 13.53 14.90 17.79 15.72 12.06 13.04 14.56 14.42 14.17 12.84 11.19 9.11 8.00 10.51 5.64 1.57 -2.57 -3.27 -7.05 -9.39 -7.76 -9.21 -2.33 0.48 -1.27
17.82 17.58 23.48 28.88 26.12 23.26 19.97 19.06 19.27 14.50 12.23 13.27 17.67 17.34 13.16 5.55 6.26 13.13 17.39 18.09 15.85 16.20 17.59 17.38 17.58 15.76 14.76 15.06 15.36 14.92 14.77 15.02 13.82 13.18 14.12 13.44 12.43 10.84 4.23 -0.82 -0.94 2.86 4.75 -1.96 -6.89 -8.85 -8.12 -10.29 -11.56 -11.74 -13.56 -12.11 -10.11 -9.75
21.86 23.64 18.57 19.71 15.07 19.21 10.88 9.50 10.54 12.16 12.56 19.04 13.75 5.12 -0.21 1.76 7.40 15.43 16.94 18.87 17.08 17.93 17.24 16.65 16.17 14.44 12.08 11.13 10.32 9.32 7.52 11.36 12.14 11.62 10.70 9.80 8.32 6.49 3.99 3.86 1.91 10.72 3.10 -0.51 -2.87 -2.14 -3.77 -2.51 -3.22 -5.94 -7.57 -11.20 -8.84 -9.27
22.02 23.65 17.14 12.61 11.43 12.37 15.89 13.11 13.98 18.15 20.08 16.26 2.83 5.53 6.65 12.29 13.38 15.32 16.89 17.64 18.33 15.92 13.95 13.68 12.00 11.34 8.85 7.44 5.69 4.78 4.31 1.50 -1.73 -5.76 -9.93 -9.21 -7.03 -1.75 4.07 3.81 2.57 -1.97 -5.58 -3.96 0.95 4.64 2.35 -0.41 0.46 -4.31 -8.48 -10.47 -4.33 -8.30
14.59 18.07 12.23 6.75 8.33 10.77 12.73 10.43 10.52 12.93 16.09 11.16 12.63 11.86 10.76 10.89 12.65 14.50 14.11 14.38 11.95 9.96 9.66 9.25 6.84 4.76 -0.32 -5.04 -5.58 -1.13 -2.87 -5.70 -2.75 -7.39 -12.29 -12.47 -7.04 -1.65 -2.68 -1.95 -1.25 -1.48 -4.85 -10.47 -4.31 -5.58 -1.05 -9.21 -6.67 -7.61 -6.72 -5.05 -13.38 -15.19
17.94 12.57 9.64 11.75 11.81 15.80 12.88 11.03 13.44 11.98 5.33 3.61 2.21 -0.70 0.99 6.74 7.27 11.37 12.20 11.09 11.14 2.93 4.55 -0.98 -1.27 -5.94 -0.57 -2.86 -10.47 -11.02 -6.85 -2.74 -7.03 -7.21 -8.66 -10.47 -13.19 -13.38 -13.19 -12.11 -12.65 -12.29 -11.20 -9.57 -6.67 -6.85 -7.03 -10.29 -11.74 -10.84 -6.49 -4.51 -7.21 -10.66
8.96 7.54 9.92 8.18 10.37 19.60 17.29 15.27 17.23 7.86 1.49 0.39 2.39 -3.95 -0.54 -3.68 -3.59 3.75 7.81 3.83 6.61 4.83 0.76 -7.57 -6.49 -3.40 -8.48 -9.75 -11.02 -8.12 -1.87 -3.59 -5.04 -6.12 -3.22 -7.21 -9.93 -13.38 -13.38 -11.92 -14.83 -15.73 -16.46 -16.64 -16.28 -15.91 -16.64 -14.10 -9.75 -5.62 -4.07 -5.45 -7.22 -7.06
5.97 4.42 2.48 8.59 11.74 9.56 5.36 12.65 8.69 6.83 3.17 -1.23 2.99 1.59 -1.09 -2.67 -3.62 2.22 7.82 2.78 -0.92 -5.40 -4.85 -4.67 -3.22 -0.21 -0.93 -5.76 -5.40 -7.57 -6.49 -10.47 -8.48 -1.23 -0.50 1.13 -0.91 -3.59 -10.66 -15.01 -15.55 -15.37 -13.38 -16.46 -18.27 -15.91 -11.74 -14.64 -17.00 -16.64 -12.47 -11.20 -9.96 -10.87
MSLP
981.94 983.67 985.41 987.24 989.08 990.79 992.35 993.79 995.10 996.38 997.59 998.82 999.86 1000.96 1001.80 1002.81 1003.59 1004.45 1005.47 1006.16 1006.91 1006.05 1004.78 1004.03 1003.68 1003.35 1003.59 1003.52 1003.73 1004.93 1005.87 1006.75 1007.84 1009.27 1010.39 1010.77 1011.33 1009.98 1010.16 1010.42 1011.21 1011.75 1013.52 1014.75 1015.10 1014.53 1012.70 1010.29 1010.15 1010.47 1011.19 1011.84 1012.17 1012.46
984.33 985.66 987.05 988.56 990.05 991.50 992.80 994.01 995.21 996.30 997.48 998.61 999.48 1000.23 1001.55 1002.20 1003.37 1004.73 1005.48 1006.17 1006.73 1006.97 1005.40 1004.72 1004.05 1003.57 1003.35 1002.86 1003.33 1004.11 1004.27 1005.37 1006.62 1008.32 1009.97 1010.96 1011.84 1010.45 1009.96 1010.76 1010.43 1010.70 1010.51 1011.94 1012.75 1012.39 1011.26 1010.52 1010.34 1010.71 1011.22 1011.98 1012.81 1012.97
986.27 987.35 988.49 989.65 990.90 992.10 993.24 994.37 995.39 996.39 997.33 998.35 999.32 1000.30 1001.16 1002.29 1003.37 1004.45 1005.17 1006.08 1007.21 1006.94 1005.35 1004.29 1003.29 1002.16 1002.03 1001.92 1001.69 1002.78 1004.34 1004.23 1005.27 1005.82 1008.38 1010.35 1011.38 1009.73 1010.01 1009.82 1009.79 1009.45 1009.29 1010.18 1011.63 1012.33 1011.93 1011.46 1011.51 1011.66 1012.14 1012.88 1013.58 1013.72
987.87 988.71 989.61 990.66 991.72 992.79 993.82 994.77 995.61 996.13 996.67 997.96 999.04 1000.21 1001.37 1002.57 1003.71 1004.67 1005.33 1005.90 1007.00 1006.11 1005.45 1003.69 1001.99 1001.64 1000.94 1000.89 1000.80 1000.95 1002.23 1003.62 1004.64 1006.10 1008.23 1009.14 1009.93 1008.67 1009.22 1008.46 1008.72 1008.41 1008.83 1009.94 1011.96 1012.67 1012.70 1012.69 1012.75 1012.98 1013.68 1014.16 1014.54 1014.98
989.24 989.97 990.78 991.62 992.50 993.42 994.41 995.15 995.54 996.31 997.23 998.33 999.50 1000.71 1001.83 1002.98 1004.08 1005.24 1005.75 1006.02 1006.45 1006.83 1006.12 1004.13 1003.38 1001.95 1001.25 1000.91 1000.76 1001.05 1001.91 1003.16 1004.75 1006.96 1007.85 1008.33 1008.23 1008.23 1008.77 1008.70 1008.65 1007.83 1008.00 1009.17 1010.62 1010.72 1011.71 1013.12 1013.75 1014.08 1014.46 1015.23 1015.66 1015.80
990.46 991.13 991.82 992.60 993.36 994.20 994.94 995.66 996.37 997.23 998.20 999.19 1000.22 1001.28 1002.31 1003.27 1004.16 1004.83 1006.31 1006.46 1006.45 1006.93 1006.81 1005.04 1003.10 1002.36 1001.96 1001.26 1001.80 1002.26 1002.56 1003.54 1004.88 1006.30 1007.71 1007.55 1007.37 1008.05 1008.95 1009.33 1008.54 1008.05 1007.80 1007.85 1009.45 1010.67 1011.92 1013.42 1014.40 1014.96 1015.31 1016.18 1016.69 1017.01
991.45 992.08 992.74 993.45 994.19 994.98 995.78 996.51 997.35 998.22 999.06 999.92 1000.73 1001.74 1002.66 1003.52 1004.16 1004.33 1004.68 1004.21 1005.26 1007.18 1007.05 1005.80 1004.12 1003.28 1002.79 1002.54 1003.39 1003.63 1003.81 1005.00 1005.76 1007.12 1007.90 1007.73 1008.11 1008.56 1008.84 1009.14 1008.89 1008.89 1008.83 1009.28 1009.96 1011.20 1013.51 1014.03 1015.19 1015.79 1016.19 1017.06 1017.54 1018.17
992.28 992.94 993.63 994.29 994.95 995.72 996.55 997.40 998.23 998.98 999.70 1000.52 1001.35 1002.22 1003.03 1003.65 1004.50 1004.62 1004.19 1004.31 1005.25 1006.80 1007.29 1006.08 1004.78 1003.81 1002.90 1003.25 1004.47 1004.81 1005.29 1006.66 1007.55 1007.57 1008.86 1009.24 1009.30 1009.04 1009.67 1009.11 1009.14 1009.42 1009.87 1010.70 1011.38 1011.39 1012.99 1014.59 1015.70 1016.58 1017.12 1017.67 1018.35 1019.20
992.96 993.63 994.31 994.96 995.63 996.32 997.07 997.95 998.77 999.43 1000.09 1000.87 1001.64 1002.66 1003.64 1004.06 1003.65 1003.55 1003.83 1004.73 1004.51 1005.82 1006.51 1005.56 1005.14 1004.09 1004.22 1004.83 1005.50 1006.38 1006.64 1008.41 1007.98 1008.71 1008.59 1008.81 1009.71 1009.86 1009.61 1009.64 1009.43 1009.70 1010.05 1011.70 1012.54 1013.19 1014.39 1015.31 1016.36 1017.13 1017.72 1018.52 1019.07 1020.09
993.45 994.23 994.80 995.49 996.15 996.84 997.62 998.33 998.97 999.76 1000.50 1001.54 1002.13 1002.01 1002.19 1002.27 1002.56 1002.82 1004.61 1004.63 1004.59 1005.49 1006.35 1005.28 1004.93 1004.92 1005.04 1005.75 1006.63 1007.02 1007.43 1008.36 1008.77 1008.94 1008.85 1009.73 1010.37 1010.46 1009.87 1009.88 1010.10 1010.47 1011.12 1012.01 1013.14 1014.60 1015.23 1016.08 1016.85 1017.64 1018.38 1019.14 1019.87 1020.80
993.73 994.33 994.87 995.58 996.56 997.31 997.94 998.52 999.17 1000.02 1000.68 1001.30 1001.00 1000.61 1001.47 1001.70 1002.16 1003.43 1004.27 1004.65 1005.05 1006.08 1005.69 1004.93 1004.61 1004.75 1005.23 1005.82 1006.97 1007.59 1008.04 1008.70 1009.13 1009.28 1009.48 1010.19 1010.65 1010.68 1010.51 1010.59 1010.85 1011.22 1011.86 1012.47 1013.11 1014.23 1015.08 1015.89 1017.03 1018.09 1019.19 1020.06 1020.90 1021.79
993.79 994.32 994.82 995.28 996.56 997.26 997.99 998.75 999.18 999.50 999.30 998.49 998.71 1000.07 1001.05 1002.06 1002.87 1003.83 1004.79 1005.23 1005.33 1005.63 1005.40 1005.19 1005.03 1004.94 1005.69 1005.70 1006.92 1008.01 1008.60 1008.97 1009.41 1009.11 1009.64 1010.33 1010.41 1010.52 1010.86 1011.20 1011.57 1011.92 1012.43 1013.37 1014.12 1014.96 1015.90 1016.82 1017.78 1018.87 1019.99 1021.05 1021.93 1022.71
994.20 994.64 995.19 995.90 996.62 997.29 997.91 997.83 998.33 998.45 998.43 998.53 999.74 1001.50 1002.41 1003.54 1003.96 1004.40 1005.30 1005.57 1005.74 1005.64 1005.52 1005.40 1005.91 1006.22 1006.46 1006.61 1007.79 1008.46 1009.19 1009.60 1009.39 1010.15 1010.46 1010.70 1010.79 1011.11 1011.45 1011.92 1012.53 1012.98 1013.66 1014.51 1015.35 1016.17 1016.93 1018.09 1019.06 1019.81 1021.06 1022.06 1022.71 1023.52
995.12 995.51 996.05 996.65 997.04 997.55 998.06 998.36 998.69 998.53 998.62 1000.43 1001.96 1003.36 1003.94 1004.58 1005.24 1005.50 1005.68 1006.06 1006.59 1006.35 1005.89 1005.86 1006.27 1006.81 1007.36 1007.75 1008.60 1008.98 1009.66 1009.68 1010.46 1011.21 1011.11 1011.31 1011.47 1011.89 1012.27 1012.87 1013.49 1014.62 1015.29 1015.93 1016.73 1017.52 1018.39 1019.30 1020.40 1021.22 1021.92 1022.72 1023.37 1024.25
996.26 996.51 996.73 997.62 997.76 998.06 998.34 998.60 998.91 998.79 1000.28 1002.45 1003.62 1005.09 1005.50 1005.87 1005.95 1005.90 1005.78 1005.85 1006.08 1005.98 1006.04 1006.30 1006.92 1007.13 1008.12 1008.87 1009.15 1009.57 1010.28 1010.60 1010.79 1011.08 1011.29 1011.56 1012.15 1012.66 1013.29 1014.03 1014.78 1015.59 1016.42 1017.25 1018.04 1018.86 1019.73 1020.46 1021.18 1022.07 1022.79 1023.37 1024.09 1024.92
996.54 996.65 998.49 998.67 998.53 998.73 998.89 998.98 999.68 1000.86 1003.46 1004.88 1005.83 1006.52 1006.74 1006.69 1006.86 1006.87 1006.94 1007.00 1006.90 1006.75 1006.52 1006.61 1007.52 1008.10 1009.05 1009.28 1009.75 1010.22 1010.57 1011.20 1011.58 1011.66 1011.83 1012.27 1012.95 1013.57 1014.27 1015.07 1015.79 1016.55 1017.37 1018.26 1019.08 1019.75 1020.44 1021.14 1021.78 1022.60 1023.45 1024.14 1024.80 1025.42
997.19 999.26 999.19 999.16 998.87 998.97 999.35 999.92 1001.79 1004.11 1005.83 1006.87 1007.83 1007.92 1007.80 1008.05 1008.33 1008.37 1008.19 1007.92 1007.51 1007.31 1007.84 1008.13 1008.67 1009.57 1009.77 1010.30 1011.08 1011.44 1012.00 1012.32 1012.38 1012.53 1012.74 1013.16 1013.82 1014.63 1015.37 1016.13 1016.87 1017.54 1018.31 1018.94 1019.63 1020.39 1021.09 1021.79 1022.53 1023.27 1023.98 1024.67 1025.11 1025.83
999.73 999.67 999.15 998.71 998.35 999.10 1000.95 1002.34 1004.34 1006.28 1007.81 1008.52 1008.79 1008.98 1008.98 1009.18 1009.18 1009.06 1008.83 1008.38 1007.98 1008.21 1008.73 1009.56 1010.02 1011.12 1012.15 1012.54 1012.90 1013.05 1013.19 1013.29 1013.38 1013.60 1013.99 1014.49 1015.06 1015.73 1016.32 1016.98 1017.73 1018.37 1019.06 1019.75 1020.37 1021.09 1021.80 1022.50 1023.17 1023.83 1024.29 1025.01 1025.64 1026.27
1000.86 1000.38 999.74 999.39 999.51 1001.06 1003.84 1005.35 1006.02 1008.04 1009.40 1009.52 1009.66 1009.61 1009.74 1010.25 1010.46 1010.20 1009.77 1009.44 1009.25 1009.24 1010.19 1011.85 1013.18 1014.25 1014.85 1014.88 1014.67 1014.27 1014.21 1014.27 1014.59 1014.97 1015.36 1015.83 1016.25 1016.80 1017.41 1018.05 1018.66 1019.31 1019.95 1020.66 1021.29 1022.08 1022.83 1023.43 1024.14 1024.68 1025.21 1025.76 1026.43 1026.96
1000.68 1000.63 1000.44 1000.20 999.99 1002.83 1005.61 1007.05 1007.35 1008.56 1009.82 1010.47 1010.35 1010.45 1010.68 1011.45 1011.69 1011.63 1011.32 1011.13 1010.82 1011.51 1013.43 1015.14 1016.59 1017.23 1017.00 1016.66 1016.10 1015.52 1015.38 1015.39 1015.55 1016.09 1016.79 1017.28 1017.66 1018.08 1018.71 1019.23 1019.88 1020.45 1021.17 1021.97 1022.74 1023.34 1024.00 1024.71 1025.30 1025.79 1026.27 1026.82 1027.48 1028.04
1001.56 1001.96 1001.65 1001.37 1002.83 1004.82 1007.20 1008.19 1008.77 1009.67 1010.22 1010.66 1010.99 1011.13 1012.19 1012.67 1012.91 1013.03 1013.17 1013.20 1013.32 1015.76 1017.23 1018.19 1018.51 1018.65 1018.38 1017.84 1017.27 1016.89 1016.71 1016.46 1016.69 1017.08 1017.83 1018.62 1019.26 1019.61 1020.24 1020.75 1021.18 1021.83 1022.50 1023.30 1023.99 1024.79 1025.26 1025.91 1026.47 1026.91 1027.32 1027.79 1028.17 1028.40
1003.31 1002.99 1003.56 1003.63 1005.28 1007.12 1008.82 1009.45 1009.67 1010.19 1010.74 1011.30 1011.50 1011.93 1012.65 1013.41 1014.13 1014.82 1015.54 1015.98 1018.21 1019.34 1019.47 1019.80 1020.00 1019.95 1019.67 1019.39 1019.27 1018.90 1018.83 1018.53 1018.66 1019.08 1019.61 1020.05 1020.74 1021.48 1022.10 1022.61 1022.90 1023.52 1024.12 1024.77 1025.33 1025.96 1026.62 1027.18 1027.55 1027.89 1028.11 1028.41 1028.41 1028.65
1003.67 1004.07 1005.57 1006.82 1008.02 1009.27 1010.99 1010.42 1010.75 1011.17 1011.67 1012.27 1012.57 1013.14 1013.77 1014.32 1015.37 1016.09 1018.09 1020.02 1021.31 1021.76 1021.39 1021.50 1021.62 1021.59 1021.52 1021.49 1020.98 1020.86 1020.80 1020.71 1021.01 1021.50 1021.96 1022.43 1022.94 1023.48 1023.87 1024.40 1024.78 1025.15 1025.70 1026.33 1026.76 1027.14 1027.60 1028.01 1028.33 1028.63 1028.83 1028.96 1029.12 1029.31
1004.86 1006.97 1008.78 1010.03 1010.75 1012.12 1012.04 1012.16 1012.00 1012.48 1012.61 1013.14 1013.78 1014.65 1015.15 1015.68 1016.62 1018.50 1020.90 1022.74 1023.59 1023.43 1022.87 1022.91 1022.74 1022.79 1022.93 1022.96 1023.15 1023.30 1023.27 1023.16 1023.24 1023.52 1023.94 1024.20 1024.70 1025.44 1025.82 1026.27 1026.64 1026.94 1027.33 1027.77 1028.16 1028.51 1028.81 1029.07 1029.26 1029.47 1029.62 1029.72 1029.83 1030.00
1008.33 1011.74 1012.15 1012.78 1012.88 1013.49 1014.15 1014.37 1014.43 1014.27 1015.00 1014.99 1015.40 1015.96 1016.32 1016.63 1018.67 1020.93 1022.73 1024.34 1024.90 1024.83 1024.70 1024.55 1024.53 1024.54 1024.79 1025.18 1025.32 1025.30 1025.23 1025.05 1025.14 1025.40 1025.94 1025.97 1026.34 1026.85 1027.41 1027.94 1028.38 1028.74 1028.92 1029.12 1029.60 1029.86 1030.05 1030.12 1030.24 1030.39 1030.51 1030.53 1030.57 1030.49
1012.31 1014.15 1014.51 1014.66 1014.91 1015.06 1015.63 1016.10 1016.02 1016.18 1016.32 1016.88 1017.24 1017.36 1017.68 1019.41 1021.50 1023.43 1024.65 1025.67 1026.10 1026.18 1026.10 1025.92 1025.97 1026.22 1026.51 1026.77 1026.87 1026.91 1026.98 1026.79 1026.74 1026.97 1027.79 1027.74 1027.81 1028.03 1028.70 1029.12 1029.49 1029.98 1030.13 1030.20 1030.54 1030.85 1030.91 1030.94 1031.03 1031.10 1031.13 1031.10 1031.11 1031.05
1015.36 1015.99 1015.78 1015.68 1015.77 1015.92 1016.61 1017.14 1017.48 1018.00 1018.45 1018.94 1019.07 1019.52 1020.43 1022.66 1024.26 1025.50 1026.20 1026.56 1026.96 1027.25 1027.21 1027.21 1027.23 1027.55 1027.95 1028.27 1028.36 1028.38 1028.23 1028.08 1028.20 1028.83 1029.28 1029.40 1029.56 1029.78 1030.09 1030.55 1030.54 1030.91 1030.81 1030.87 1030.93 1031.28 1031.47 1031.34 1031.33 1031.37 1031.41 1031.34 1031.35 1031.30
1016.91 1017.24 1017.47 1017.52 1017.66 1018.01 1018.97 1019.75 1020.23 1020.59 1020.77 1020.75 1021.16 1023.16 1024.41 1025.68 1026.66 1026.95 1027.18 1027.49 1027.71 1027.99 1028.26 1028.49 1028.73 1029.08 1029.48 1029.81 1029.87 1029.73 1029.77 1029.63 1029.82 1030.10 1030.39 1030.67 1030.87 1031.07 1031.14 1031.25 1031.20 1030.56 1030.95 1031.17 1031.25 1030.82 1030.69 1030.75 1030.94 1031.17 1031.40 1031.36 1031.16 1030.39
1018.27 1018.43 1018.55 1019.20 1019.59 1020.43 1021.28 1021.82 1022.34 1022.40 1022.49 1022.49 1024.01 1025.77 1027.01 1028.08 1028.58 1028.40 1028.39 1028.41 1028.57 1028.91 1029.30 1029.80 1030.32 1030.54 1030.93 1031.14 1031.23 1031.24 1031.15 1031.15 1031.26 1031.82 1032.07 1032.52 1032.38 1032.37 1032.18 1032.08 1032.01 1031.89 1031.97 1032.00 1031.11 1030.47 1029.99 1029.91 1029.93 1030.27 1030.71 1030.88 1030.41 1030.04
1019.71 1019.45 1020.31 1021.12 1021.98 1022.83 1023.40 1023.58 1024.15 1024.39 1024.02 1024.65 1025.91 1027.67 1028.71 1029.67 1030.03 1029.83 1029.61 1029.67 1029.95 1030.48 1030.97 1031.30 1031.56 1031.68 1032.30 1032.53 1032.90 1032.76 1032.67 1032.48 1032.65 1032.96 1033.39 1033.69 1033.53 1033.36 1033.15 1033.10 1032.97 1032.65 1032.31 1032.36 1031.69 1031.16 1030.76 1030.63 1030.28 1030.25 1030.68 1030.59 1030.71 1030.60
1020.78 1021.10 1022.07 1022.97 1023.55 1023.95 1024.41 1024.55 1024.79 1025.20 1025.87 1027.05 1027.86 1029.00 1029.98 1030.56 1031.02 1031.16 1031.11 1031.26 1031.50 1031.82 1032.15 1032.75 1032.82 1032.90 1033.07 1033.24 1033.75 1033.60 1033.75 1033.61 1033.36 1033.29 1033.31 1033.42 1033.56 1033.69 1033.79 1033.73 1033.35 1032.98 1032.66 1032.61 1032.17 1031.89 1031.63 1031.57 1031.61 1031.24 1031.01 1030.79 1030.71 1030.70
1022.63 1023.53 1023.70 1024.69 1024.86 1024.53 1024.62 1024.99 1025.62 1026.87 1028.09 1028.95 1030.00 1030.15 1030.88 1031.66 1032.37 1032.53 1032.71 1032.71 1032.86 1033.23 1033.50 1033.50 1033.62 1033.67 1033.48 1033.52 1033.72 1033.93 1034.08 1034.10 1033.89 1033.61 1033.46 1033.48 1033.71 1033.82 1033.61 1033.24 1033.18 1033.17 1033.35 1032.87 1032.53 1032.31 1032.19 1032.43 1032.16 1031.90 1031.61 1031.25 1031.00 1030.89
1024.28 1024.50 1024.92 1025.48 1025.74 1025.81 1025.61 1025.69 1026.63 1028.19 1029.15 1030.17 1030.72 1031.17 1031.84 1032.43 1033.03 1033.21 1033.22 1033.39 1034.09 1034.29 1034.43 1034.30 1033.83 1033.46 1033.53 1033.97 1034.30 1034.44 1034.12 1034.27 1033.87 1033.42 1033.06 1032.85 1032.94 1032.95 1033.16 1033.26 1033.15 1033.09 1033.06 1032.80 1032.65 1032.60 1032.64 1032.83 1032.65 1032.38 1032.08 1031.83 1031.49 1031.22
Wind_Speed
33 35 34 34 33 31 30 29 28 28 29 28 27 26 23 23 28 15 7 4 2 3 4 3 5 5 12 16 11 4 6 3 4 5 4 1 3 6 5 7 7 8 8 4 4 3 7 5 4 8 7 4 7 5
32 31 31 31 30 29 28 27 26 26 27 26 24 22 24 27 27 17 5 7 2 3 3 3 11 13 7 10 8 4 5 7 6 5 3 4 3 1 6 4 2 1 9 9 10 7 3 3 5 5 6 8 4 7
28 29 29 29 28 26 26 25 22 24 20 24 25 26 24 26 24 13 3 5 3 4 5 2 7 7 5 10 8 8 3 5 4 5 5 4 5 2 5 5 4 1 4 5 7 3 2 5 5 6 6 10 6 4
26 26 26 25 25 25 24 22 20 21 27 28 26 24 23 22 22 12 4 4 3 3 2 7 4 6 7 4 8 7 9 4 6 4 4 4 6 4 5 6 6 6 7 7 5 3 5 6 5 10 11 11 13 13
23 22 22 23 23 23 20 20 18 22 22 22 23 24 21 19 21 7 3 2 3 2 2 5 7 4 6 4 5 6 10 7 4 3 3 3 2 4 1 4 1 4 8 6 7 13 5 4 5 8 12 10 10 16
22 22 23 22 21 22 20 19 20 21 21 21 22 21 21 22 18 5 3 4 3 2 2 4 3 4 5 7 7 7 6 5 4 4 2 1 0 3 5 3 3 2 1 5 7 9 15 14 10 9 14 12 12 15
19 20 21 21 21 21 20 18 19 19 20 20 19 19 19 20 8 5 4 3 16 5 3 5 5 4 3 4 3 4 5 4 5 2 4 2 4 2 3 4 6 5 11 16 19 19 11 1 9 11 15 14 15 13
19 19 20 20 20 20 19 19 19 20 19 18 19 19 17 18 5 7 2 12 12 6 3 3 3 2 5 2 4 3 3 5 3 3 2 2 1 2 2 3 11 11 14 11 7 9 13 16 15 13 13 13 15 12
18 19 19 20 20 20 20 21 20 20 19 19 19 17 7 4 5 4 17 12 4 4 5 2 5 2 3 3 3 4 3 4 2 4 1 3 2 2 2 8 12 11 8 14 15 18 16 16 15 12 12 10 13 11
16 16 18 19 19 21 21 20 19 17 18 21 6 4 4 6 10 14 3 4 2 2 1 4 1 2 3 2 2 3 1 3 3 2 2 4 1 3 3 5 8 14 18 18 19 11 14 14 13 11 10 9 10 10
14 16 13 15 19 19 18 15 17 21 22 5 7 3 3 8 4 2 5 3 3 3 3 1 2 4 2 5 3 1 2 1 3 2 5 2 3 3 3 8 9 12 12 6 11 14 13 15 14 13 12 12 11 11
20 19 19 20 23 21 19 21 28 13 7 5 7 5 3 3 3 4 3 0 1 4 2 2 1 3 2 3 5 2 3 3 2 2 4 2 1 6 8 9 9 10 14 13 13 15 15 14 14 14 13 11 10 11
21 18 20 22 25 27 29 32 27 6 9 4 6 5 2 2 3 4 4 2 3 2 1 1 3 3 3 4 4 4 4 1 1 4 2 1 4 6 9 9 11 12 15 15 15 15 16 15 13 14 13 10 11 10
28 28 21 17 19 22 24 29 12 5 3 5 4 5 4 3 3 2 2 3 3 3 4 3 3 3 2 5 2 4 1 3 3 1 3 2 6 8 9 10 15 13 13 15 15 15 15 15 12 11 11 9 10 10
25 24 26 19 13 12 10 3 1 5 6 7 5 5 5 1 1 2 1 2 3 1 2 3 4 3 3 4 2 4 2 2 3 3 2 4 8 10 11 12 13 13 12 12 12 12 12 12 12 11 9 8 9 8
10 16 13 16 13 9 8 7 6 5 5 5 7 4 2 3 4 4 4 3 4 2 1 4 4 4 3 3 2 2 4 2 1 1 2 9 11 11 11 11 11 11 11 11 11 11 11 11 11 11 9 8 6 8
17 5 14 8 4 14 12 5 5 8 5 5 4 3 3 4 3 2 3 3 3 2 3 3 5 2 1 4 3 4 2 1 1 2 4 10 12 13 12 12 11 11 10 11 11 10 10 10 10 9 10 7 7 8
6 6 11 9 9 9 5 7 6 6 8 5 4 3 3 4 2 3 4 3 3 3 3 4 3 6 5 4 3 2 2 3 5 5 7 9 11 10 9 11 10 10 10 10 10 9 11 9 8 5 8 8 7 7
8 10 15 13 8 6 6 6 5 6 5 2 2 2 3 3 6 5 7 7 4 5 5 5 7 5 3 3 3 3 3 3 4 5 6 8 9 9 10 10 10 10 10 9 9 7 7 8 6 5 5 5 4 3
10 20 18 17 8 6 6 4 3 5 3 2 2 7 4 5 4 8 10 8 7 5 7 7 5 4 3 4 4 2 3 3 7 8 6 6 6 9 8 8 7 10 10 11 9 9 8 7 6 5 5 4 3 1
10 8 13 8 6 8 5 3 4 3 3 3 2 3 5 7 9 8 8 7 10 6 5 5 4 6 8 8 7 7 8 4 4 4 5 6 6 8 8 7 8 7 7 7 7 7 8 6 5 4 3 3 1 1
3 9 4 7 6 6 5 6 3 2 3 2 3 3 3 3 3 6 4 9 7 6 4 4 7 7 9 14 11 12 10 12 13 10 11 9 8 8 8 7 8 8 8 6 6 6 6 4 3 3 2 2 3 2
4 6 6 7 8 8 2 2 4 3 4 2 2 3 3 3 4 2 6 6 5 6 6 6 9 11 10 12 13 15 14 13 10 9 9 9 9 9 8 8 7 7 7 6 5 5 4 4 4 3 3 3 3 3
7 8 7 6 7 2 3 6 3 3 4 4 3 3 3 3 3 5 5 4 4 7 8 11 6 6 8 12 10 10 9 8 9 9 8 7 8 8 8 8 8 8 7 6 5 5 4 4 4 3 3 3 3 1
11 10 7 8 5 6 6 6 6 5 4 5 4 3 2 3 5 5 4 3 5 6 7 7 8 8 7 6 6 8 10 7 7 9 8 6 7 6 7 7 8 7 5 5 5 4 4 4 4 4 4 4 4 5
10 5 5 6 4 4 2 3 4 4 3 3 2 1 4 5 6 5 3 1 3 4 5 5 5 6 8 7 6 6 5 5 6 9 7 7 6 5 4 4 3 4 4 3 3 3 4 3 3 5 4 5 4 4
8 6 4 3 2 2 4 4 4 6 5 5 4 5 5 6 5 3 2 2 2 3 4 5 6 6 5 5 5 6 6 7 8 7 6 7 7 6 4 4 2 2 1 3 3 3 1 2 3 3 3 3 3 3
3 5 5 7 6 5 5 5 5 5 4 5 4 8 5 3 3 3 3 4 3 4 5 6 7 7 7 6 5 4 4 4 6 7 7 6 6 6 5 3 2 3 1 1 1 2 2 3 4 3 3 4 5 4
4 4 5 8 6 6 6 5 4 3 5 2 5 4 4 4 4 4 4 4 5 5 5 5 5 5 6 6 6 6 6 5 5 6 5 3 4 5 7 4 4 4 3 3 6 4 4 1 2 3 5 4 5 3
5 2 5 5 6 5 4 3 1 3 5 4 5 7 6 3 4 5 5 5 6 6 5 5 3 5 3 4 2 5 4 3 5 5 4 0 3 3 3 3 3 4 4 3 4 4 6 5 5 5 4 4 4 3
3 5 6 5 4 3 3 3 7 8 5 5 5 5 4 4 2 6 7 5 5 3 5 4 5 3 4 4 3 3 4 3 2 2 2 2 2 2 3 3 3 2 3 3 3 3 3 3 3 4 6 6 4 3
4 3 4 4 1 4 3 1 3 3 3 4 2 3 3 5 3 3 3 2 5 5 4 3 4 2 2 1 2 2 3 1 3 3 3 2 2 3 3 3 3 3 3 4 3 3 4 3 3 6 7 8 6 5
5 5 5 4 3 3 4 3 4 3 4 3 2 2 2 4 3 3 1 3 4 3 0 2 2 2 1 5 5 2 3 1 4 6 5 4 0 2 3 3 2 2 3 3 4 3 4 4 4 5 6 6 6 6
Wind_Direction
126 135 142 147 149 153 159 162 167 173 175 178 181 186 183 211 186 176 202 110 193 301 275 26 325 163 194 207 197 178 86 347 66 84 117 74 238 205 112 163 190 155 139 168 94 65 276 205 82 156 193 95 131 102
125 133 137 143 147 154 159 163 164 170 174 177 184 180 198 173 168 167 203 154 150 244 302 307 269 255 216 259 164 197 167 162 162 114 159 61 267 206 139 209 179 150 172 172 170 211 258 306 135 107 137 128 127 114
128 135 139 145 150 154 159 160 164 169 189 186 183 176 171 164 164 161 95 120 112 283 298 233 235 263 278 229 194 129 283 154 159 154 134 173 257 150 139 230 115 298 143 128 109 340 51 85 73 84 90 103 85 71
128 136 142 144 147 151 157 160 162 180 157 164 162 156 153 159 158 156 108 125 198 314 327 283 286 301 278 256 178 154 146 108 99 76 125 162 175 195 203 168 140 197 135 118 75 52 82 27 68 112 97 93 88 69
132 134 136 139 143 146 149 156 145 137 134 135 141 149 151 142 146 112 93 159 204 292 311 323 299 262 325 323 144 121 131 124 123 107 86 188 188 109 4 76 185 195 168 146 196 183 140 121 108 122 102 100 98 104
127 131 134 138 141 147 147 137 128 126 128 136 144 149 139 141 138 120 154 224 153 89 306 264 279 353 326 65 115 63 52 60 89 114 206 130 3 112 115 154 302 350 67 149 144 103 104 104 95 105 103 104 97 97
133 135 138 138 138 138 134 127 128 129 133 141 144 141 147 156 158 180 169 170 150 106 286 312 319 278 308 45 48 45 43 47 61 72 15 44 7 49 89 154 164 90 99 105 113 111 97 46 125 106 104 106 101 97
131 133 132 133 133 132 134 132 128 123 123 129 137 145 157 163 103 267 112 137 125 126 283 256 281 237 38 339 78 351 74 35 39 125 6 140 307 45 56 148 122 110 103 100 67 81 110 117 111 110 113 117 107 101
126 128 132 135 134 133 133 136 137 137 142 141 147 139 131 186 191 205 88 141 100 149 205 104 215 182 6 55 78 52 74 128 203 179 164 86 302 164 221 161 142 142 126 125 102 106 115 117 122 123 120 112 110 109
135 134 135 137 141 143 146 148 148 147 141 137 126 191 180 161 135 80 37 306 84 87 231 220 215 114 83 46 30 71 53 129 85 260 78 65 71 304 50 96 117 122 122 124 110 121 128 129 134 130 125 114 111 104
150 150 160 177 161 153 146 140 146 149 146 168 206 136 111 170 74 140 161 167 170 156 251 229 140 123 348 105 123 47 130 70 101 220 132 144 155 207 122 106 110 118 123 90 115 130 134 134 131 124 110 104 104 104
155 158 143 144 151 159 156 158 153 165 181 189 117 106 75 59 78 108 191 348 109 184 279 118 48 80 27 89 87 14 99 50 163 149 84 171 154 135 116 114 111 115 115 116 120 120 118 118 116 112 111 107 104 111
104 119 121 131 136 143 153 165 165 223 157 51 55 59 188 226 91 113 145 108 99 347 279 89 76 106 58 39 73 88 91 181 60 47 194 38 133 117 126 113 102 93 100 105 105 103 101 99 104 114 113 106 108 102
74 76 87 122 135 151 160 167 186 336 69 68 67 50 32 44 36 35 88 119 192 186 108 94 72 69 59 46 58 84 345 61 86 100 221 147 134 129 127 115 112 108 105 105 106 104 103 104 102 103 106 112 114 111
69 65 61 44 107 131 152 185 36 33 57 67 35 45 33 336 340 334 4 54 354 33 68 74 68 74 59 99 38 104 85 132 173 210 148 122 125 122 118 117 114 111 106 105 107 106 109 113 111 107 107 110 113 114
52 59 27 14 57 97 130 75 39 59 56 59 38 63 358 45 14 14 7 26 352 333 72 57 88 72 55 112 88 63 114 137 160 44 106 123 116 117 116 110 107 108 110 114 119 121 116 116 121 119 113 114 114 126
64 49 325 351 52 71 82 78 54 52 61 47 39 9 22 55 37 358 341 336 309 45 57 63 58 77 110 70 59 20 57 28 41 49 92 119 122 121 110 107 108 112 116 119 119 119 116 113 116 123 126 131 124 127
47 316 351 23 31 39 43 37 66 59 56 32 51 359 45 31 336 6 345 336 21 62 54 60 61 48 33 40 37 53 55 52 56 77 97 104 108 109 114 118 116 120 115 113 116 117 123 123 114 103 123 118 106 117
46 30 28 42 63 84 63 34 38 83 57 21 5 7 55 57 33 23 27 14 35 38 64 45 51 35 27 6 335 21 41 46 81 76 80 87 100 105 104 106 110 111 107 102 98 94 94 94 94 89 89 95 95 83
21 23 14 21 50 73 70 41 45 70 63 50 19 41 44 35 23 33 38 24 35 57 47 44 36 7 353 316 298 358 50 81 102 94 76 71 84 94 92 100 96 102 103 102 92 94 97 86 70 68 72 79 89 68
28 348 2 22 55 60 71 45 63 66 84 74 352 37 82 56 41 32 34 358 46 38 59 44 48 30 17 23 27 35 28 38 65 76 105 93 78 88 89 84 87 87 91 90 94 83 74 75 74 80 76 60 26 239
343 23 40 16 71 64 57 6 74 72 70 69 40 46 65 71 48 39 49 39 51 18 22 37 37 30 29 30 29 33 39 54 56 60 51 63 68 65 61 62 75 72 68 73 82 88 88 77 69 67 74 24 34 59
26 42 42 30 62 51 323 26 58 41 81 99 62 57 42 44 76 54 69 42 51 4 10 64 58 50 49 37 39 40 37 55 60 61 64 67 66 63 67 61 60 75 78 68 72 81 80 67 54 70 40 34 30 20
25 51 43 42 48 54 13 18 26 35 47 51 59 58 41 76 85 66 68 52 7 2 22 27 38 54 48 42 37 30 29 44 60 55 53 71 73 63 63 62 53 51 56 61 56 52 51 48 44 44 30 27 10 348
63 1 54 8 2 48 38 19 357 46 50 24 63 32 9 46 69 62 60 54 12 9 12 35 43 43 56 50 37 33 30 40 60 66 31 58 87 85 74 66 57 46 36 53 43 43 32 26 26 24 18 17 343 320
68 348 51 5 355 61 36 34 35 32 75 55 46 355 52 67 62 55 60 64 8 6 3 25 54 61 54 41 43 27 15 24 65 69 40 32 39 69 81 75 63 54 26 68 73 47 19 14 27 20 3 355 19 19
47 7 339 0 343 36 41 50 37 57 37 28 1 24 61 65 70 79 96 34 60 17 32 36 50 58 59 55 47 31 29 45 67 81 80 64 59 58 93 105 88 260 8 86 97 135 187 298 296 302 307 312 283 261
44 33 19 339 36 17 64 44 40 29 0 337 54 36 78 82 67 44 24 108 100 78 68 60 59 61 59 48 29 20 18 38 80 88 84 62 56 45 20 22 24 6 11 72 250 251 239 251 250 267 267 264 281 269
21 335 57 13 42 42 32 36 36 26 345 25 85 73 80 56 2 35 31 49 61 70 72 87 77 79 67 55 44 38 37 41 76 60 50 5 356 345 356 15 11 5 360 349 327 329 310 270 301 240 253 241 264 294
321 24 83 48 60 54 354 77 49 334 25 71 89 99 75 59 30 14 31 43 67 71 65 65 46 59 62 86 43 25 16 46 76 114 122 249 260 286 335 358 345 338 334 343 325 311 332 6 346 349 353 333 349 348
1 35 59 51 76 79 133 123 86 60 42 47 45 90 120 130 44 28 30 37 76 64 71 54 43 22 68 52 74 63 11 336 47 91 163 195 234 292 307 302 295 323 355 357 356 353 342 341 330 321 315 310 280 228
22 42 112 89 348 113 151 87 99 86 43 60 45 64 29 58 58 357 335 41 57 56 31 84 73 343 250 213 60 77 109 26 348 332 328 259 258 274 282 305 336 3 9 358 348 347 357 355 345 359 352 341 327 319
36 31 36 56 32 14 307 81 57 70 38 53 40 114 81 116 135 213 70 53 122 142 104 276 273 285 118 100 109 68 33 345 342 1 1 66 125 298 311 310 315 328 333 326 327 345 352 353 344 340 347 353 349 356